Regional Weather Roundup
Issued by NWS Midland/Odessa, TX

Skip options and go directly to product.
Home | Oldest Version | Previous Version | Current Version | All | Graphics & Text | Save Text | Print | Product List | Glossary On

Skip product version selection by date and time.   
256
ASUS44 KMAF 252301
RWRMAF
MIDLAND AREA WEATHER ROUNDUP
NATIONAL WEATHER SERVICE MIDLAND TX
600 PM CDT SAT JUN 25 2016

...IN SOUTHWEST TEXAS AND SOUTHEAST NEW MEXICO...

CITY           SKY/WX    TMP DP  RH WIND       PRES   REMARKS
ALPINE         CLOUDY    88  51  28 NE8       30.08S
ANDREWS        FAIR      91  60  35 SE16G22   29.97F
ARTESIA        CLOUDY    95  55  26 CALM      29.94S
BIG SPRING     CLOUDY    84  61  45 E15G23    29.99F
CARLSBAD       SUNNY     96  49  20 E8G17     29.91F
DRYDEN           N/A     93  63  36 SE21G28   29.91S
FORT STOCKTON  SUNNY     93  62  35 SE18G30   29.92F
GUAD PASS      CLOUDY    87  47  24 E18G26      N/A
HOBBS          MOSUNNY   93  54  26 E16G22    29.99F
MARFA          CLOUDY   N/A N/A N/A VRB5      30.05F
MIDLAND AIRPK  SUNNY     94  57  28 SE20      29.96F
MIDLAND INTL   MOSUNNY   94  58  29 SE18      29.95F
ODESSA         SUNNY     93  58  30 S17G28    29.96F
PECOS          SUNNY     99  57  25 E17G23    29.85F
PRESIDIO       FAIR     101  49  17 NE3       29.84F
SEMINOLE       CLOUDY    93  56  29 SE17G26   29.99S
SNYDER           N/A     83  66  56 SE16      30.01F
WINK           SUNNY     95  57  27 SE14G26   29.89F
$$
...OTHER STATIONS IN TEXAS...

CITY           SKY/WX    TMP DP  RH WIND       PRES   REMARKS
ABILENE        PTSUNNY   85  68  56 S20G26    29.99F
AMARILLO       SUNNY     94  55  26 S23G32    29.98F
AUSTIN         CLOUDY    81  78  91 S5        30.01S
BROWNSVILLE    MOSUNNY   90  75  61 SE15G24   29.97F HX 100
CORPUS CHRISTI CLOUDY    85  77  77 SE16      29.98F
DALLAS FTW     CLOUDY    91  71  51 S15       29.98F
DEL RIO        PTSUNNY   94  68  42 SE18G28   29.88F
EL PASO        PTSUNNY   90  50  25 NE24G33   29.93S
HOUSTON INT    PTSUNNY   83  77  82 E10       30.01F THUNDER
LUBBOCK        MOSUNNY   92  58  31 SE21G29   29.99F
SAN ANGELO     PTSUNNY   90  68  48 SE15G24   29.95F
SAN ANTONIO    LGT RAIN  78  73  84 SE12      30.02S
WACO           CLOUDY    86  71  60 S12       30.01F
WICHITA FALLS  NOT AVBL
$$
...OTHER LOCATIONS IN NEW MEXICO...

CITY           SKY/WX    TMP DP  RH WIND       PRES   REMARKS
ALAMAGORDO     CLOUDY    91  50  24 SE8       29.99S
ALBUQUERQUE    CLOUDY    93  37  14 W12       30.06F
CANNON AFB     SUNNY     93  55  28 S22       30.00F
CLOVIS         SUNNY     91  55  29 S22G29    30.01F
HOLLOMAN AFB   CLOUDY    94  49  22 E7        29.95F
ROSWELL        TSTM      90  52  27 W17G31    29.94F
RUIDOSO          N/A     75  41  29 S6        30.24S
SANTA FE       CLOUDY    87  34  15 N14G22    30.14S
TRUTH OR CONSE PTSUNNY   94  40  15 SW5       29.99S
TUCUMCARI      CLOUDY    99  51  19 S15G25    29.92F
$$

USA.gov is the U.S. government's official web portal to all federal, state and local government web resources and services.